SUOMI NPP [+]

Last updated on Fri Dec 29 2023 00:02:19 GMT+0000 (Coordinated Universal Time)

1 37849U 11061A 23362.48341244 .00000167 00000+0 99749-4 0 9991 2 37849 98.7252 298.0509 0001500 77.1966 282.9377 14.19535461630502
UTC large
Height (km)
Speed (km/s)
/
Latitude / Longitude
Inclination (degrees)
Orbital Period (minutes)
Azimuth
Elevation
Range (km)
Doppler Factor

Next 0 passes for location: London (51.5072 / 0.1276)

Sorry there are no passes over London.